Change the Weather History Date:

Sunday, April 7, 2013

  Actual Average Record
Temperature  
Mean Temperature 65 °F 64 °F  
Max Temperature 81 °F 77 °F 88 °F (1999)
Min Temperature 48 °F 52 °F 39 °F (2007)
Degree Days  
Heating Degree Days 0    
Month to date heating degree days 32  
Since 1 July heating degree days 1341  
Cooling Degree Days 0    
Month to date cooling degree days 2  
Year to date cooling degree days 73  
Growing Degree Days 14 (Base 50)    
Moisture  
Dew Point 53 °F    
Average Humidity 70    
Maximum Humidity 100    
Minimum Humidity 39    
Precipitation  
Precipitation 0.00 in 0.15 in 2.48 in (2014)
Month to date precipitation 0.42 1.17  
Year to date precipitation 17.27 16.69  
Sea Level Pressure  
Sea Level Pressure 30.11 in    
Wind  
Wind Speed 4 mph (SSE)    
Max Wind Speed 15 mph    
Max Gust Speed 23 mph    
Visibility 10 miles    
Events      
T = Trace of Precipitation, MM = Missing Value Source: NWS Daily Summary

Daily Weather History Graph

Daily Weather History Graph

Search for Another Location

Airport or City:

Trip Planner

Search our weather history database for the weather conditions in past years. The results will help you decide how hot, cold, wet, or windy it might be!

Date:

Astronomy

Apr. 07, 2013 Rise Set
Actual Time 6:22 AM CDT 7:03 PM CDT
Civil Twilight 5:57 AM CDT 7:28 PM CDT
Nautical Twilight 5:28 AM CDT 7:57 PM CDT
Astronomical Twilight 4:59 AM CDT 8:26 PM CDT
Moon 4:29 AM CDT (4/7) 4:43 PM CDT (4/7)
Length of Visible Light 13h 30m
Length of Day
12h 41m
Waning Crescent, 8% of the Moon is Illuminated
Apr 7
Waning Crescent
Apr 10
New
Apr 18
First Quarter
Apr 25
Full
May 2
Last Quarter

Hourly Weather History & Observations

Time (CDT) Temp. Heat Index Dew Point Humidity Pressure Visibility Wind Dir Wind Speed Gust Speed Precip Events Conditions
12:53 AM 55.9 °F - 50.0 °F 80% 30.12 in 10.0 mi East 3.5 mph - N/A   Clear
1:53 AM 54.0 °F - 50.0 °F 86% 30.12 in 10.0 mi Calm Calm - N/A   Clear
2:53 AM 53.1 °F - 48.9 °F 86% 30.12 in 10.0 mi Calm Calm - N/A   Clear
3:53 AM 52.0 °F - 48.9 °F 89% 30.11 in 10.0 mi Calm Calm - N/A   Clear
4:53 AM 51.1 °F - 48.0 °F 89% 30.11 in 10.0 mi Calm Calm - N/A   Clear
5:53 AM 51.1 °F - 48.0 °F 89% 30.13 in 10.0 mi Calm Calm - N/A   Clear
6:53 AM 48.9 °F - 48.0 °F 97% 30.14 in 10.0 mi Calm Calm - N/A   Clear
7:53 AM 55.9 °F - 52.0 °F 87% 30.17 in 10.0 mi ESE 3.5 mph - N/A   Clear
8:53 AM 63.0 °F - 55.9 °F 78% 30.16 in 10.0 mi SSE 6.9 mph - N/A   Partly Cloudy
9:53 AM 70.0 °F - 55.9 °F 61% 30.17 in 10.0 mi SE 8.1 mph - N/A   Scattered Clouds
10:53 AM 73.0 °F - 55.9 °F 55% 30.17 in 10.0 mi SE 6.9 mph - N/A   Mostly Cloudy
11:53 AM 75.9 °F - 57.0 °F 52% 30.16 in 10.0 mi Variable 6.9 mph - N/A   Mostly Cloudy
12:53 PM 77.0 °F - 55.0 °F 47% 30.13 in 10.0 mi South 8.1 mph 16.1 mph N/A   Partly Cloudy
1:53 PM 79.0 °F - 54.0 °F 42% 30.10 in 10.0 mi SSW 6.9 mph - N/A   Scattered Clouds
2:53 PM 79.0 °F - 53.1 °F 40% 30.07 in 10.0 mi SSW 5.8 mph - N/A   Mostly Cloudy
3:53 PM 81.0 °F 80.4 °F 53.1 °F 38% 30.06 in 10.0 mi South 8.1 mph - N/A   Mostly Cloudy
4:53 PM 79.0 °F - 53.1 °F 40% 30.05 in 10.0 mi South 11.5 mph - N/A   Partly Cloudy
5:53 PM 75.9 °F - 54.0 °F 46% 30.06 in 10.0 mi South 8.1 mph - N/A   Overcast
6:53 PM 73.0 °F - 55.0 °F 53% 30.08 in 10.0 mi South 5.8 mph - N/A   Mostly Cloudy
7:53 PM 68.0 °F - 55.9 °F 65% 30.09 in 10.0 mi South 4.6 mph - N/A   Mostly Cloudy
8:53 PM 66.9 °F - 55.0 °F 66% 30.10 in 10.0 mi Calm Calm - N/A   Mostly Cloudy
9:53 PM 64.0 °F - 55.0 °F 73% 30.10 in 10.0 mi Calm Calm - N/A   Clear
10:53 PM 59.0 °F - 55.0 °F 87% 30.09 in 10.0 mi Calm Calm - N/A   Clear
11:53 PM 57.0 °F - 54.0 °F 89% 30.08 in 10.0 mi Calm Calm - N/A   Clear